Regional Weather Roundup
Issued by NWS

Home | Current Version | Previous Version | Text Only | Print | Product List | Glossary Off
Versions: 1 2 3 4 5 6 7 8 9 10 11 12 13 14 15 16 17 18 19 20 21 22 23 24 25 26 27 28 29 30 31 32 33 34 35 36 37 38 39 40 41 42 43 44 45 46 47 48 49 50

000
ASUS43 KFSD 211710
RWRSD

WEATHER ROUNDUP FOR SOUTH DAKOTA
NATIONAL WEATHER SERVICE SIOUX FALLS SD
1100 AM CST WED FEB 21 2018

NOTE: "FAIR" INDICATES FEW OR NO CLOUDS BELOW 12,000 FEET WITH NO
SIGNIFICANT WEATHER AND/OR OBSTRUCTIONS TO VISIBILITY.


SDZ001>005-009-010-012>017-211800-
NORTHWEST AND NORTH CENTRAL SOUTH DAKOTA

CITY           SKY/WX    TMP DP  RH WIND       PRES   REMARKS
BUFFALO          N/A     -5 -14  65 SE6       30.20R WCI -18
FAITH            N/A     -4 -10  75 S12       30.37R WCI -22
MOBRIDGE       SUNNY     -1 -10  65 SE8       30.42R WCI -15
$$

SDZ012>016-024>037-041>051-057-063-072>074-211800-
SOUTHWEST AND SOUTH CENTRAL SOUTH DAKOTA

CITY           SKY/WX    TMP DP  RH WIND       PRES   REMARKS
RAPID CTY ARPT SUNNY      0  -4  83 CALM      30.27F
PIERRE         SUNNY     -5  -8  87 CALM      30.49R
CUSTER         MOSUNNY   13  -2  51 SW7       30.09F WCI   3
ELLSWORTH AFB  SUNNY      3  -7  63 CALM      30.25F
PHILIP         SUNNY     -5 -10  79 W5        30.43R WCI -16
PINE RIDGE     SUNNY      5  -4  66 NE5       30.30S WCI  -4
SPEARFISH        N/A     10  -2  56 SE3       30.20F
WINNER         FAIR       8  -4  58 SE8       30.48R WCI  -4
$$

SDZ004>011-016>023-039-040-211800-
NORTHEAST SOUTH DAKOTA

CITY           SKY/WX    TMP DP  RH WIND       PRES   REMARKS
ABERDEEN       SUNNY     -3 -10  72 S9        30.54R WCI -19
WATERTOWN      SUNNY      3  -3  76 SW5       30.50R WCI  -6
BROOKINGS      SUNNY      5  -4  66 W6        30.54R WCI  -6
SISSETON         N/A     12  -3  51 SW14      30.51R WCI  -3
$$

SDZ017-020-022-023-036>040-048>070-211800-
SOUTHEAST SOUTH DAKOTA

CITY           SKY/WX    TMP DP  RH WIND       PRES   REMARKS
SIOUX FALLS    MOSUNNY    7  -2  66 S8        30.61R WCI  -6
HURON          SUNNY      5  -4  66 E3        30.56R
CHAMBERLAIN    SUNNY      5  -5  63 SE3       30.53R
MITCHELL       SUNNY     10  -3  55 SW8       30.59R WCI  -2
YANKTON        SUNNY     10  -1  61 S8        30.63R WCI  -2
$$

ABBREVIATIONS USED IN REMARKS
   TC - TEMPERATURE IN CELSIUS
  WCI - WIND CHILL INDEX
   HX - HEAT INDEX
  VSB - VISIBILITY





USA.gov is the U.S. government's official web portal to all federal, state and local government web resources and services.